Location: Terra Rouge Observatory
(46.0000°N, 62.7500°W)
Time: 06:28:46
(UTC-04:00)

Amateur Radio Satellites - All Passes

Search period start: 18 November 2017 05:58
Search period end: 19 November 2017 05:58
Location: Terra Rouge Observatory, 46.0000°N, 62.7500°W

Satellite Date Start Highest point End Downlink Frequencies (MHz)
Time Altitude Azimuth
FO-29 18 Nov 06:05:59 06:10:28 19° 51° (NE) 06:15:12 435.910
KAITUO 1B 18 Nov 06:06:29 06:09:59 36° 97° (E) 06:13:28 145.475/437.950
BEESAT 2 18 Nov 06:06:42 06:10:04 24° 319° (NW) 06:13:26 435.950
ITAMSAT 1 18 Nov 06:10:45 06:12:14 11° 307° (NW) 06:13:44 435.822/435.867
XW-2D 18 Nov 06:11:45 06:15:31 60° 101° (ESE) 06:19:17 145.860 - 145.880
AO-7 18 Nov 06:12:07 06:18:23 24° 312° (NW) 06:24:38 .
HO-68 18 Nov 06:15:10 06:20:55 25° 92° (E) 06:26:36 435.675
SO-50 18 Nov 06:25:17 06:29:37 38° 45° (NE) 06:33:59 436.795
RS-15 18 Nov 06:25:54 06:34:51 27° 259° (W) 06:43:30 29.354- 29.394
XW-2B 18 Nov 06:26:25 06:30:14 87° 103° (ESE) 06:34:03 145.730 - 145.750
AO-85 18 Nov 06:35:09 06:38:37 29° 318° (NW) 06:42:16 145.980
DOVE 4 18 Nov 06:37:10 06:41:19 24° 298° (WNW) 06:45:23 437.250
LilacSat-2 18 Nov 06:49:20 06:53:00 46° 288° (WNW) 06:56:40 437.200
XW-2C 18 Nov 06:51:56 06:55:35 45° 288° (WNW) 06:59:13 145.795 - 145.815
NUDT-PHONESAT 18 Nov 06:57:27 07:01:05 56° 287° (WNW) 07:04:43 437.300
UWE-3 18 Nov 06:58:51 07:01:20 15° 90° (E) 07:03:48 435.000/436.395/437.385
XW-2F 18 Nov 07:06:14 07:09:40 34° 290° (WNW) 07:13:06 145.980 - 146.000
CUTE 1.7 + AOD 2 18 Nov 07:10:33 07:14:47 62° 100° (E) 07:19:01 437.475
CUTE-I 18 Nov 07:14:01 07:19:17 56° 290° (WNW) 07:24:30 437.470
STRAND 1 18 Nov 07:21:53 07:26:48 43° 262° (W) 07:31:43 437.568
CUBEBUG 2 18 Nov 07:29:34 07:33:44 57° 100° (E) 07:37:48 437.445
UNISAT 6 18 Nov 07:30:44 07:32:00 11° 58° (ENE) 07:33:17 437.425
TIGRISAT 18 Nov 07:35:53 07:37:21 11° 58° (ENE) 07:38:49 435.000
KAITUO 1B 18 Nov 07:41:04 07:43:43 19° 294° (WNW) 07:46:23 145.475/437.950
XW-2A 18 Nov 07:42:14 07:45:25 39° 99° (E) 07:48:35 145.665 - 145.685
XW-2D 18 Nov 07:47:33 07:49:13 13° 298° (WNW) 07:50:53 145.860 - 145.880
FO-29 18 Nov 07:47:42 07:54:13 78° 73° (ENE) 08:01:37 435.910
SEEDS 18 Nov 07:48:08 07:52:24 84° 284° (WNW) 07:56:38 437.485
AO-73 18 Nov 07:49:53 07:53:20 25° 94° (E) 07:56:46 145.935
YUBILEINY 18 Nov 07:57:35 08:04:53 29° 297° (WNW) 08:12:18 435.215
HO-68 18 Nov 08:02:04 08:09:14 70° 291° (WNW) 08:16:21 435.675
SO-50 18 Nov 08:05:51 08:10:01 33° 243° (WSW) 08:14:14 436.795
AAUSAT CUBESAT 2 18 Nov 08:05:54 08:10:04 68° 100° (E) 08:14:14 437.432
PCSat 18 Nov 08:08:30 08:12:15 18° 35° (NE) 08:15:57 145.827
Oscar 11 18 Nov 08:10:13 08:14:00 29° 95° (E) 08:17:47 .
ZACube-1 18 Nov 08:32:16 08:36:25 82° 100° (E) 08:40:35 437.345
UWE-3 18 Nov 08:34:04 08:38:07 50° 288° (WNW) 08:42:07 435.000/436.395/437.385
CUTE 1.7 + AOD 2 18 Nov 08:47:42 08:50:09 15° 298° (WNW) 08:52:35 437.475
UNISAT 6 18 Nov 09:03:23 09:08:00 82° 75° (ENE) 09:12:31 437.425
CUBEBUG 2 18 Nov 09:07:25 09:09:54 15° 298° (WNW) 09:12:21 437.445
TIGRISAT 18 Nov 09:08:44 09:13:20 85° 78° (ENE) 09:17:52 435.000
DELFI C3 18 Nov 09:09:57 09:13:23 26° 95° (E) 09:16:46 145.870
XW-2A 18 Nov 09:16:01 09:17:48 14° 295° (WNW) 09:19:34 145.665 - 145.685
Max Valier Satellite 18 Nov 09:25:26 09:28:33 26° 95° (E) 09:31:40 145.860
AO-73 18 Nov 09:25:56 09:29:35 30° 292° (WNW) 09:33:13 145.935
SEEDS 18 Nov 09:27:02 09:27:21 10° 302° (WNW) 09:27:40 437.485
PRISM 18 Nov 09:31:47 09:35:51 61° 73° (ENE) 09:39:58 437.425
EO-88 18 Nov 09:32:07 09:35:03 22° 94° (E) 09:37:57 145.990 - 145.960
FO-29 18 Nov 09:35:20 09:40:11 21° 274° (W) 09:45:26 435.910
AAUSAT CUBESAT 2 18 Nov 09:42:54 09:45:00 14° 299° (WNW) 09:47:05 437.432
Oscar 11 18 Nov 09:46:21 09:50:06 29° 292° (WNW) 09:53:50 .
PCSat 18 Nov 09:51:07 09:56:34 76° 56° (NE) 10:01:59 145.827
POLYITAN 1 18 Nov 09:51:15 09:53:10 13° 60° (ENE) 09:55:06 437.675
HO-68 18 Nov 09:51:28 09:55:45 17° 312° (NW) 10:00:02 435.675
AIST 2D 18 Nov 10:02:54 10:06:03 34° 71° (ENE) 10:09:15 435.315
BEESAT 3 18 Nov 10:04:43 10:05:30 10° 27° (NNE) 10:06:16 437.485
ZACube-1 18 Nov 10:10:52 10:12:05 11° 301° (WNW) 10:13:18 437.345
QB50P2 18 Nov 10:12:37 10:15:56 23° 65° (ENE) 10:19:16 145.880/145.840
ESTCUBE 1 18 Nov 10:28:03 10:29:55 12° 88° (E) 10:31:46 437.505/2401.250
UNISAT 6 18 Nov 10:43:44 10:45:14 11° 272° (W) 10:46:44 437.425
DELFI C3 18 Nov 10:44:39 10:48:04 28° 292° (WNW) 10:51:28 145.870
TIGRISAT 18 Nov 10:49:21 10:50:35 11° 272° (W) 10:51:48 435.000
Max Valier Satellite 18 Nov 10:59:19 11:02:16 23° 292° (WNW) 11:05:14 145.860
EO-88 18 Nov 11:05:32 11:08:40 27° 291° (WNW) 11:11:47 145.990 - 145.960
DUCHIFAT 1 18 Nov 11:06:52 11:11:00 56° 73° (ENE) 11:15:08 145.980
BEESAT 2 18 Nov 11:07:02 11:08:52 13° 30° (NNE) 11:10:41 435.950
PRISM 18 Nov 11:09:34 11:11:31 13° 270° (W) 11:13:28 437.425
EO-79 18 Nov 11:09:45 11:14:00 78° 76° (ENE) 11:18:16 145.935-145.965
NANOSAT C BR1 18 Nov 11:15:20 11:19:34 79° 75° (ENE) 11:23:49 145.865
POLYITAN 1 18 Nov 11:24:08 11:28:22 75° 256° (WSW) 11:32:38 437.675
PCSat 18 Nov 11:35:49 11:39:19 18° 255° (WSW) 11:42:49 145.827
AIST 2D 18 Nov 11:37:14 11:39:22 15° 268° (W) 11:41:31 435.315
BEESAT 3 18 Nov 11:40:10 11:44:01 46° 49° (NE) 11:47:48 437.485
LO-87 18 Nov 11:40:29 11:44:03 78° 284° (WNW) 11:47:35 145.935 - 145.965
AO-7 18 Nov 11:42:27 11:45:08 12° 34° (NE) 11:47:50 .
AO-85 18 Nov 11:42:50 11:45:36 16° 32° (NNE) 11:48:27 145.980
QB50P2 18 Nov 11:47:33 11:51:31 38° 262° (W) 11:55:30 145.880/145.840
ESTCUBE 1 18 Nov 12:02:42 12:07:14 76° 287° (WNW) 12:11:45 437.505/2401.250
BUGSAT 1 18 Nov 12:12:42 12:16:54 74° 74° (ENE) 12:21:05 437.445
FALCONSAT 3 18 Nov 12:16:26 12:18:26 14° 170° (S) 12:20:27 435.103
M-CUBED/EXP-1 PRIME 18 Nov 12:18:05 12:19:46 13° 53° (NE) 12:21:30 437.505
Gurwin Techsat 1B 18 Nov 12:23:17 12:28:14 41° 67° (ENE) 12:33:12 435.225
Oscar 19 18 Nov 12:24:34 12:29:33 56° 70° (ENE) 12:34:34 437.125/150
SPROUT 18 Nov 12:25:10 12:29:19 48° 99° (E) 12:33:25 437.525
VELOX 1 18 Nov 12:38:04 12:42:20 42° 99° (E) 12:46:33 145.980
BEESAT 2 18 Nov 12:43:22 12:47:24 61° 50° (NE) 12:51:22 435.950
DUCHIFAT 1 18 Nov 12:44:35 12:46:59 15° 269° (W) 12:49:24 145.980
EO-79 18 Nov 12:49:16 12:50:17 11° 272° (W) 12:51:19 145.935-145.965
50 SAT 18 Nov 12:54:15 12:55:47 13° 92° (E) 12:57:18 437.505
NANOSAT C BR1 18 Nov 12:55:01 12:55:49 10° 272° (W) 12:56:37 145.865
BEESAT 3 18 Nov 13:18:25 13:21:14 19° 247° (WSW) 13:24:02 437.485
AO-85 18 Nov 13:22:10 13:26:47 68° 52° (NE) 13:31:44 145.980
AO-7 18 Nov 13:28:08 13:35:41 41° 58° (ENE) 13:43:16 .
DX 1 18 Nov 13:34:08 13:38:15 38° 98° (E) 13:42:21 434.975-435.025
ESTCUBE 1 18 Nov 13:42:41 13:43:13 10° 304° (NW) 13:43:47 437.505/2401.250
M-CUBED/EXP-1 PRIME 18 Nov 13:50:10 13:53:37 62° 254° (WSW) 13:57:22 437.505
BUGSAT 1 18 Nov 13:51:30 13:52:43 11° 271° (W) 13:53:58 437.445
FALCONSAT 3 18 Nov 13:54:31 13:56:47 15° 185° (S) 13:59:01 435.103
SPROUT 18 Nov 14:01:54 14:04:50 18° 297° (WNW) 14:07:46 437.525
Gurwin Techsat 1B 18 Nov 14:03:38 14:08:16 30° 265° (W) 14:12:56 435.225
Oscar 19 18 Nov 14:05:27 14:09:14 20° 268° (W) 14:13:01 437.125/150
ITAMSAT 1 18 Nov 14:10:11 14:14:54 36° 66° (ENE) 14:19:38 435.822/435.867
VELOX 1 18 Nov 14:15:03 14:18:31 22° 296° (WNW) 14:21:58 145.980
O/OREOS (USA 219) 18 Nov 14:15:57 14:20:31 78° 114° (ESE) 14:25:10 437.305
BEESAT 2 18 Nov 14:22:20 14:24:39 15° 249° (WSW) 14:26:57 435.950
UKube-1 18 Nov 14:23:04 14:27:26 79° 105° (ESE) 14:31:45 .
50 SAT 18 Nov 14:25:02 14:28:05 36° 288° (WNW) 14:31:04 437.505
DOVE 4 18 Nov 14:33:00 14:34:11 11° 54° (NE) 14:35:22 437.250
MOZHAYETS 4 18 Nov 14:53:41 14:57:48 32° 96° (E) 15:01:54
AO-85 18 Nov 15:03:33 15:06:50 19° 248° (WSW) 15:10:15 145.980
DX 1 18 Nov 15:10:43 15:14:14 24° 296° (WNW) 15:17:44 434.975-435.025
AO-7 18 Nov 15:20:13 15:28:15 54° 258° (WSW) 15:36:22 .
BEESAT 18 Nov 15:40:13 15:44:59 70° 103° (ESE) 15:49:43 436.000
ITUPSAT 1 18 Nov 15:47:42 15:52:30 80° 103° (ESE) 15:57:15 437.325
ITAMSAT 1 18 Nov 15:49:38 15:54:20 34° 264° (W) 15:59:06 435.822/435.867
O/OREOS (USA 219) 18 Nov 15:57:39 16:00:32 16° 313° (NW) 16:03:25 437.305
UKube-1 18 Nov 16:00:53 16:02:49 13° 302° (WNW) 16:04:45 .
LilacSat-2 18 Nov 16:01:46 16:02:58 11° 61° (ENE) 16:04:10 437.200
XW-2C 18 Nov 16:03:56 16:05:00 11° 61° (ENE) 16:06:02 145.795 - 145.815
YUBILEINY 18 Nov 16:05:44 16:14:01 42° 70° (ENE) 16:22:14 435.215
DOVE 4 18 Nov 16:05:51 16:10:46 65° 73° (ENE) 16:15:58 437.250
XW-2F 18 Nov 16:16:36 16:18:35 14° 63° (ENE) 16:20:35 145.980 - 146.000
NO-84 18 Nov 16:26:05 16:29:48 54° 138° (SE) 16:33:47 435.350 FM
MOZHAYETS 4 18 Nov 16:30:56 16:34:53 29° 294° (WNW) 16:38:48
CUBESAT XI-V 18 Nov 16:33:24 16:38:06 79° 103° (ESE) 16:42:48 437.345
HO-68 18 Nov 16:47:00 16:52:42 26° 55° (NE) 16:58:25 435.675
KAITUO 1B 18 Nov 16:48:50 16:51:50 24° 67° (ENE) 16:54:50 145.475/437.950
XW-2D 18 Nov 16:55:02 16:58:32 39° 71° (ENE) 17:02:04 145.860 - 145.880
CUTE-I 18 Nov 16:58:36 17:03:41 45° 68° (ENE) 17:08:48 437.470
KKS-1 18 Nov 17:08:19 17:12:35 42° 99° (E) 17:16:48 437.445
XW-2B 18 Nov 17:09:34 17:13:13 57° 74° (ENE) 17:16:54 145.730 - 145.750
SEEDS 18 Nov 17:10:11 17:10:49 10° 58° (ENE) 17:11:27 437.485
BEESAT 18 Nov 17:19:16 17:22:12 17° 301° (WNW) 17:25:08 436.000
ITUPSAT 1 18 Nov 17:27:06 17:29:41 15° 302° (WNW) 17:32:15 437.325
LilacSat-2 18 Nov 17:32:58 17:36:42 67° 258° (WSW) 17:40:28 437.200
XW-2C 18 Nov 17:34:55 17:38:37 69° 259° (W) 17:42:22 145.795 - 145.815
NUDT-PHONESAT 18 Nov 17:38:10 17:41:49 88° 73° (ENE) 17:45:30 437.300
STARS 18 Nov 17:41:30 17:45:38 38° 98° (E) 17:49:43 437.465
DOVE 4 18 Nov 17:45:36 17:48:57 18° 272° (W) 17:52:24 437.250
XW-2F 18 Nov 17:48:41 17:52:17 49° 260° (W) 17:55:56 145.980 - 146.000
UWE-3 18 Nov 17:57:51 18:01:00 19° 64° (ENE) 18:04:07 435.000/436.395/437.385
ZACube-1 18 Nov 17:57:58 17:58:37 10° 58° (ENE) 17:59:16 437.345
YUBILEINY 18 Nov 18:02:35 18:11:00 50° 271° (W) 18:19:21 435.215
NO-84 18 Nov 18:03:38 18:07:20 36° 338° (NNW) 18:11:13 435.350 FM
CUTE 1.7 + AOD 2 18 Nov 18:05:10 18:09:17 58° 73° (ENE) 18:13:26 437.475
CUBESAT XI-V 18 Nov 18:12:24 18:14:51 14° 301° (WNW) 18:17:19 437.345
XW-2A 18 Nov 18:15:57 18:18:26 20° 67° (ENE) 18:20:56 145.665 - 145.685
KAITUO 1B 18 Nov 18:22:37 18:25:43 25° 265° (W) 18:28:51 145.475/437.950
CUBEBUG 2 18 Nov 18:29:13 18:33:47 65° 74° (ENE) 18:38:15 437.445
XW-2D 18 Nov 18:30:32 18:32:54 16° 269° (W) 18:35:16 145.860 - 145.880
HO-68 18 Nov 18:32:35 18:39:47 75° 255° (WSW) 18:47:02 435.675
RS-15 18 Nov 18:37:11 18:48:36 48° 110° (ESE) 18:59:59 29.354- 29.394
CUTE-I 18 Nov 18:39:23 18:43:54 27° 266° (W) 18:48:28 437.470
SEEDS 18 Nov 18:41:38 18:45:47 88° 75° (ENE) 18:50:00 437.485
KKS-1 18 Nov 18:45:24 18:48:53 23° 297° (WNW) 18:52:21 437.445
XW-2B 18 Nov 18:46:28 18:47:45 11° 271° (W) 18:49:02 145.730 - 145.750
AO-73 18 Nov 18:47:28 18:51:08 28° 68° (ENE) 18:54:44 145.935
FO-29 18 Nov 18:57:14 19:00:23 13° 80° (E) 19:03:30 435.910
AAUSAT CUBESAT 2 18 Nov 18:57:50 19:01:52 59° 74° (ENE) 19:05:58 437.432
Oscar 11 18 Nov 19:07:13 19:10:58 30° 68° (ENE) 19:14:45 .
STARS 18 Nov 19:18:14 19:21:47 24° 296° (WNW) 19:25:17 437.465
STRAND 1 18 Nov 19:29:29 19:34:31 53° 100° (E) 19:39:30 437.568
ZACube-1 18 Nov 19:29:50 19:34:12 85° 77° (ENE) 19:38:30 437.345
UWE-3 18 Nov 19:32:47 19:37:08 49° 260° (W) 19:41:24 435.000/436.395/437.385
NO-84 18 Nov 19:42:13 19:45:35 23° 360° (N) 19:49:03 435.350 FM
CUTE 1.7 + AOD 2 18 Nov 19:43:15 19:45:30 14° 271° (W) 19:47:44 437.475
XW-2A 18 Nov 19:48:12 19:51:00 25° 264° (W) 19:53:49 145.665 - 145.685
DELFI C3 18 Nov 19:57:35 20:00:39 22° 66° (ENE) 20:03:45 145.870
Max Valier Satellite 18 Nov 20:06:56 20:09:27 18° 66° (ENE) 20:11:59 145.860
CUBEBUG 2 18 Nov 20:08:11 20:10:47 15° 270° (W) 20:13:20 437.445
EO-88 18 Nov 20:12:44 20:14:50 15° 64° (ENE) 20:16:57 145.990 - 145.960
AO-73 18 Nov 20:23:28 20:27:17 30° 264° (W) 20:31:04 145.935
HO-68 18 Nov 20:25:09 20:28:42 14° 275° (W) 20:32:16 435.675
AAUSAT CUBESAT 2 18 Nov 20:35:39 20:37:42 13° 271° (W) 20:39:46 437.432
FO-29 18 Nov 20:39:05 20:46:56 63° 100° (E) 20:54:26 435.910
Oscar 11 18 Nov 20:43:24 20:47:05 28° 265° (W) 20:50:48 .
RS-15 18 Nov 20:48:33 21:00:49 65° 315° (NW) 21:12:57 29.354- 29.394
UNISAT 6 18 Nov 20:54:09 20:56:18 14° 89° (E) 20:58:26 437.425
TIGRISAT 18 Nov 20:59:14 21:01:30 14° 89° (E) 21:03:44 435.000
STRAND 1 18 Nov 21:09:23 21:13:21 23° 298° (WNW) 21:17:18 437.568
nSIGHT-1 18 Nov 21:12:28 21:14:21 15° 135° (SE) 21:16:14 .
NO-84 18 Nov 21:19:58 21:23:52 34° 20° (NNE) 21:27:47 435.350 FM
ESTCUBE 1 18 Nov 21:29:38 21:32:24 16° 61° (ENE) 21:35:12 437.505/2401.250
DELFI C3 18 Nov 21:31:35 21:35:12 34° 263° (W) 21:38:52 145.870
Max Valier Satellite 18 Nov 21:39:39 21:43:02 35° 262° (W) 21:46:26 145.860
EO-88 18 Nov 21:44:40 21:48:07 43° 261° (W) 21:51:37 145.990 - 145.960
ISS 18 Nov 21:46:12 21:48:54 24° 139° (SE) 21:51:36 437.550
LO-87 18 Nov 22:18:08 22:21:41 57° 74° (ENE) 22:25:15 145.935 - 145.965
SO-50 18 Nov 22:21:53 22:26:05 42° 119° (ESE) 22:30:21 436.795
FO-29 18 Nov 22:24:36 22:31:28 35° 300° (WNW) 22:38:10 435.910
UNISAT 6 18 Nov 22:29:12 22:33:27 61° 287° (WNW) 22:37:39 437.425
TIGRISAT 18 Nov 22:34:22 22:38:37 59° 287° (WNW) 22:42:47 435.000
O/OREOS (USA 219) 18 Nov 22:44:41 22:48:40 28° 55° (NE) 22:52:36 437.305
PRISM 18 Nov 22:45:27 22:49:38 71° 102° (ESE) 22:53:47 437.425
nSIGHT-1 18 Nov 22:46:57 22:50:11 90° 348° (NNW) 22:53:24 .
EO-79 18 Nov 22:54:50 22:55:19 10° 88° (E) 22:55:47 145.935-145.965
NO-84 18 Nov 22:57:15 23:01:31 69° 220° (SW) 23:05:44 435.350 FM
AIST 2D 18 Nov 22:58:00 23:01:09 30° 96° (E) 23:04:18 435.315
NANOSAT C BR1 18 Nov 22:59:58 23:00:30 10° 88° (E) 23:01:02 145.865
ESTCUBE 1 18 Nov 23:04:18 23:08:43 62° 258° (WSW) 23:13:12 437.505/2401.250
RS-15 18 Nov 23:05:25 23:16:15 34° 345° (NNW) 23:26:47 29.354- 29.394
POLYITAN 1 18 Nov 23:07:39 23:10:00 15° 90° (E) 23:12:21 437.675
SPROUT 18 Nov 23:20:19 23:24:28 50° 72° (ENE) 23:28:38 437.525
ISS 18 Nov 23:21:55 23:25:10 61° 337° (NNW) 23:28:25 437.550
QB50P2 18 Nov 23:29:44 23:33:22 27° 95° (E) 23:36:58 145.880/145.840
VELOX 1 18 Nov 23:37:13 23:41:31 51° 71° (ENE) 23:45:51 145.980
UKube-1 18 Nov 23:46:58 23:48:23 11° 57° (ENE) 23:49:48 .
LO-87 18 Nov 23:54:34 23:55:26 11° 271° (W) 23:56:18 145.935 - 145.965
SO-50 19 Nov 00:02:43 00:06:40 30° 319° (NW) 00:10:41 436.795
PRISM 19 Nov 00:22:22 00:24:21 13° 300° (WNW) 00:26:20 437.425
DUCHIFAT 1 19 Nov 00:23:35 00:27:46 73° 103° (ESE) 00:31:54 145.980
nSIGHT-1 19 Nov 00:23:46 00:26:41 31° 351° (N) 00:29:36 .
O/OREOS (USA 219) 19 Nov 00:23:58 00:28:07 35° 254° (WSW) 00:32:14 437.305
EO-79 19 Nov 00:27:24 00:31:37 79° 285° (WNW) 00:35:48 145.935-145.965
AIST 2D 19 Nov 00:31:36 00:34:09 19° 293° (WNW) 00:36:42 435.315
DX 1 19 Nov 00:31:38 00:35:48 46° 70° (ENE) 00:40:01 434.975-435.025
NANOSAT C BR1 19 Nov 00:32:33 00:36:45 79° 286° (WNW) 00:40:55 145.865
Oscar 19 19 Nov 00:34:44 00:37:50 16° 89° (E) 00:40:56 437.125/150
PCSat 19 Nov 00:35:14 00:40:16 41° 113° (ESE) 00:45:20 145.827
NO-84 19 Nov 00:36:32 00:38:11 12° 237° (WSW) 00:39:50 435.350 FM
Gurwin Techsat 1B 19 Nov 00:38:43 00:40:55 12° 87° (E) 00:43:08 435.225
POLYITAN 1 19 Nov 00:42:01 00:46:08 55° 288° (WNW) 00:50:13 437.675
50 SAT 19 Nov 00:53:46 00:57:01 89° 259° (W) 01:00:18 437.505
SPROUT 19 Nov 00:57:50 01:00:38 17° 269° (W) 01:03:27 437.525
ISS 19 Nov 00:59:07 01:02:03 29° 357° (N) 01:04:58 437.550
QB50P2 19 Nov 01:05:28 01:09:07 29° 293° (WNW) 01:12:45 145.880/145.840
BEESAT 19 Nov 01:13:40 01:16:21 15° 58° (ENE) 01:19:04 436.000
VELOX 1 19 Nov 01:15:14 01:18:15 18° 269° (W) 01:21:17 145.980
UKube-1 19 Nov 01:19:23 01:23:43 89° 294° (WNW) 01:28:04 .
ITUPSAT 1 19 Nov 01:21:01 01:24:06 17° 59° (ENE) 01:27:11 437.325
RS-15 19 Nov 01:22:15 01:33:10 36° 20° (NNE) 01:43:36 29.354- 29.394
BUGSAT 1 19 Nov 01:27:06 01:31:11 90° 158° (SSE) 01:35:12 437.445
MOZHAYETS 4 19 Nov 01:57:38 02:01:55 41° 70° (ENE) 02:06:13
nSIGHT-1 19 Nov 02:00:31 02:03:28 33° 11° (N) 02:06:24 .
DUCHIFAT 1 19 Nov 02:01:00 02:02:51 13° 300° (WNW) 02:04:42 145.980
CUBESAT XI-V 19 Nov 02:04:26 02:06:40 14° 59° (ENE) 02:08:54 437.345
DX 1 19 Nov 02:09:05 02:12:13 19° 267° (W) 02:15:22 434.975-435.025
Oscar 19 19 Nov 02:12:32 02:17:41 72° 287° (WNW) 02:22:49 437.125/150
Gurwin Techsat 1B 19 Nov 02:16:16 02:21:38 88° 105° (ESE) 02:26:57 435.225
PCSat 19 Nov 02:18:43 02:23:43 37° 313° (NW) 02:28:45 145.827
ISS 19 Nov 02:35:55 02:39:03 41° 17° (NNE) 02:42:10 437.550
BEESAT 19 Nov 02:48:44 02:53:31 78° 256° (WSW) 02:58:19 436.000
ITUPSAT 1 19 Nov 02:56:39 03:01:25 67° 258° (WSW) 03:06:12 437.325
M-CUBED/EXP-1 PRIME 19 Nov 02:59:06 03:03:33 62° 106° (ESE) 03:08:08 437.505
BUGSAT 1 19 Nov 03:05:42 03:05:50 10° 302° (WNW) 03:05:58 437.445
BEESAT 3 19 Nov 03:08:45 03:12:22 34° 118° (ESE) 03:16:02 437.485
AO-7 19 Nov 03:18:35 03:26:33 46° 100° (E) 03:34:29 .
MOZHAYETS 4 19 Nov 03:35:39 03:39:14 23° 267° (W) 03:42:50
RS-15 19 Nov 03:35:55 03:47:58 76° 50° (NE) 03:59:19 29.354- 29.394
nSIGHT-1 19 Nov 03:36:43 03:39:54 74° 211° (SSW) 03:43:05 .
CUBESAT XI-V 19 Nov 03:38:48 03:43:23 82° 258° (WSW) 03:48:02 437.345
Oscar 19 19 Nov 03:54:17 03:56:06 12° 306° (NW) 03:57:56 437.125/150
Gurwin Techsat 1B 19 Nov 03:57:47 04:00:51 16° 304° (WNW) 04:03:53 435.225
ITAMSAT 1 19 Nov 03:59:10 04:04:24 70° 103° (ESE) 04:09:35 435.822/435.867
DOVE 4 19 Nov 04:03:28 04:06:48 17° 88° (E) 04:10:03 437.250
PCSat 19 Nov 04:07:04 04:08:46 11° 337° (NNW) 04:10:30 145.827
KKS-1 19 Nov 04:08:18 04:12:39 53° 71° (ENE) 04:17:03 437.445
ISS 19 Nov 04:12:25 04:15:34 45° 215° (SW) 04:18:41 437.550
BEESAT 2 19 Nov 04:13:35 04:17:27 47° 120° (ESE) 04:21:22 435.950
M-CUBED/EXP-1 PRIME 19 Nov 04:34:26 04:37:31 19° 303° (WNW) 04:40:41 437.505
STARS 19 Nov 04:40:00 04:44:15 47° 70° (ENE) 04:48:31 437.465
BEESAT 3 19 Nov 04:46:24 04:49:56 29° 316° (NW) 04:53:30 437.485
LilacSat-2 19 Nov 05:05:40 05:06:43 11° 89° (E) 05:07:46 437.200
XW-2C 19 Nov 05:07:17 05:07:56 10° 89° (E) 05:08:34 145.795 - 145.815
YUBILEINY 19 Nov 05:09:58 05:17:59 43° 86° (E) 05:26:05 435.215
SO-50 19 Nov 05:10:44 05:13:49 17° 32° (NNE) 05:16:55 436.795
STRAND 1 19 Nov 05:11:24 05:14:20 15° 57° (ENE) 05:17:15 437.568
AO-7 19 Nov 05:11:29 05:19:20 47° 300° (WNW) 05:27:10 .
CUTE-I 19 Nov 05:14:28 05:17:20 14° 88° (E) 05:20:10 437.470
nSIGHT-1 19 Nov 05:14:32 05:15:38 11° 227° (SW) 05:16:44 .
AO-85 19 Nov 05:19:13 05:23:06 87° 129° (SE) 05:27:12 145.980
XW-2F 19 Nov 05:19:13 05:21:10 14° 90° (E) 05:23:08 145.980 - 146.000
ITAMSAT 1 19 Nov 05:39:45 05:43:18 19° 302° (WNW) 05:46:52 435.822/435.867
DOVE 4 19 Nov 05:39:46 05:45:01 69° 286° (WNW) 05:50:02 437.250
KKS-1 19 Nov 05:46:34 05:49:32 17° 269° (W) 05:52:30 437.445
KAITUO 1B 19 Nov 05:50:37 05:53:43 24° 95° (E) 05:56:48 145.475/437.950
BEESAT 2 19 Nov 05:52:05 05:55:23 24° 319° (NW) 05:58:44 435.950
